[[{"header":{"parameterUnit":"m.s-1","parameterCategory":1,"la1":30.2991,"la2":30.254,"lo1":-89.0895,"lo2":-89.0444,"dx":0.0017,"dy":0.0017,"nx":28,"ny":28,"refTime":"2022-11-21T15:00:00:Z","depth":0,"parameterNumber":2,"parameterNumberName":"U-component_of_WINDS"},"data":[0,0,0,0,0,0,0,0,0,0,0,0,0,0,0,0,0,0,0,0,0,0,0,0,0,0,0,0,0,0,0,0,0,0,0,0,0,0,0,0,0,0,0,0,0,0,0,0,0,0,0,0,0,0,0,0,0,0,-2.2362,-2.2361,0,-2.2336,-2.2336,-2.2335,-2.2247,-2.2245,-2.2243,-2.2242,-2.222,-2.2221,-2.2222,0,0,0,0,0,0,0,0,0,0,0,0,0,-2.2339,-2.234,-2.2362,-2.2361,-2.2361,-2.2336,-2.2336,-2.2335,-2.2248,-2.2245,-2.2243,-2.2241,-2.2219,-2.2221,-2.2222,0,0,0,0,0,0,0,0,0,0,0,0,0,-2.2335,-2.234,-2.2362,-2.2314,-2.231,-2.2336,-2.2336,-2.2335,-2.2248,-2.2245,-2.2242,-2.2239,-2.2219,-2.222,-2.2222,-2.2294,0,0,-2.2228,-2.2229,0,0,0,0,0,0,0,0,-2.2335,-2.2336,-2.2322,-2.2318,-2.2313,-2.2292,-2.2319,-2.2321,-2.2249,-2.2272,-2.2241,-2.2238,-2.2246,-2.2246,-2.2248,-2.2293,-2.2292,-2.2228,-2.2229,-2.223,-2.2231,0,0,0,0,0,0,0,-2.2335,-2.2336,-2.2352,-2.2322,-2.2316,-2.2295,-2.2291,-2.2319,-2.2276,-2.227,-2.2263,-2.2261,-2.2243,-2.2246,-2.2246,-2.2292,-2.2228,-2.223,-2.2231,-2.2232,-2.2394,-2.2397,0,0,0,0,0,0,-2.2342,-2.2337,-2.2352,-2.2351,-2.2316,-2.2298,-2.2294,-2.2302,-2.2276,-2.2269,-2.2264,-2.2257,-2.2244,-2.2244,-2.2245,-2.2328,-2.223,-2.2232,-2.2233,-2.2391,-2.2395,-2.2398,0,0,0,0,0,0,-2.2342,-2.2344,-2.2353,-2.2342,-2.2342,-2.2302,-2.2311,-2.2303,-2.2305,-2.2271,-2.2263,-2.2274,-2.2242,-2.2243,-2.2282,-2.2326,-2.2233,-2.2235,-2.2387,-2.2392,-2.2397,-2.2493,0,0,0,0,0,0,-2.2341,-2.2344,-2.2371,-2.2343,-2.2343,-2.239,-2.2314,-2.2304,-2.2308,-2.2299,-2.2279,-2.2273,-2.224,-2.228,-2.2284,-2.2327,-2.2236,-2.2383,-2.2389,-2.2395,-2.2486,-2.25,-2.2513,0,0,0,0,0,-2.2341,-2.24,-2.2372,-2.2375,-2.2374,-2.2393,-2.2393,-2.2352,-2.2312,-2.2338,-2.2316,-2.2273,-2.232,-2.2285,-2.2289,-2.2332,-2.238,-2.2388,-2.2395,-2.248,-2.2498,-2.2513,0,0,0,0,0,0,-2.2435,-2.2395,-2.2365,-2.2416,-2.2408,-2.2378,-2.241,-2.2372,-2.2377,-2.2369,-2.2319,-2.2315,-2.2362,-2.2351,-2.2312,-2.24,-2.2343,-2.2351,-2.2406,-2.2423,-2.2436,-2.2439,-2.2238,0,0,0,0,0,-2.2462,-2.2479,-2.2443,-2.2492,-2.249,-2.2451,-2.2457,-2.2427,-2.2417,-2.2414,-2.2395,-2.2388,-2.2401,-2.2411,-2.2421,-2.2483,-2.2478,-2.2515,-2.2529,-2.254,-2.2548,-2.2581,-2.2597,-2.2422,-2.2422,-2.2421,0,0,-2.2517,-2.2498,-2.2512,-2.2511,-2.2501,-2.2521,-2.2449,-2.2473,-2.2488,-2.2418,-2.2454,-2.244,-2.2429,-2.248,-2.2502,-2.2472,-2.2595,-2.2549,-2.2558,-2.2561,-2.259,-2.2606,-2.2621,-2.2426,-2.2426,-2.2425,0,0,-2.2629,-2.2615,-2.2655,-2.2646,-2.2631,-2.2605,-2.2614,-2.2589,-2.2577,-2.2611,-2.2559,-2.2576,-2.26,-2.2594,-2.2595,-2.2703,-2.2664,-2.2708,-2.278,-2.2812,-2.2826,-2.2838,-2.2877,-2.2892,-2.2716,-2.2716,-2.2716,0,-2.2701,-2.2728,-2.268,-2.2708,-2.2709,-2.2644,-2.2685,-2.2679,-2.2669,-2.2672,-2.2639,-2.2666,-2.2655,-2.2704,-2.273,-2.2732,-2.2742,-2.2711,-2.2827,-2.2839,-2.2849,-2.2887,-2.2902,-2.2722,-2.2721,-2.272,-2.272,0,-2.2817,-2.2836,-2.287,-2.286,-2.2865,-2.2899,-2.2858,-2.2869,-2.2837,-2.2815,-2.2851,-2.2834,-2.284,-2.2849,-2.2819,-2.2894,-2.2876,-2.2836,-2.2777,-2.2872,-2.2907,-2.2921,-2.2729,-2.2728,-2.2726,-2.2724,0,0,-2.299,-2.2952,-2.2965,-2.296,-2.2938,-2.2953,-2.2984,-2.2988,-2.2999,-2.2994,-2.3019,-2.304,-2.3002,-2.3002,-2.2971,-2.2999,-2.3087,-2.2955,-2.2954,-2.2981,-2.3169,-2.3201,-2.3219,-2.306,-2.3062,-2.3064,-2.3171,0,-2.3097,-2.3146,-2.3104,-2.3162,-2.318,-2.3118,-2.3145,-2.3135,-2.3114,-2.3127,-2.3104,-2.312,-2.3068,-2.3068,-2.3093,-2.3071,-2.3124,-2.3062,-2.3085,-2.3086,-2.3091,-2.3236,-2.327,-2.3371,-2.3184,-2.3186,-2.3187,0,-2.3229,-2.3228,-2.3288,-2.3262,-2.3267,-2.3292,-2.3292,-2.3305,-2.3293,-2.3276,-2.3276,-2.3236,-2.3266,-2.3207,-2.3247,-2.3206,-2.3213,-2.3203,-2.3206,-2.3208,-2.3144,-2.3244,-2.3403,-2.3419,-2.3208,-2.3206,-2.3205,0,-2.3351,-2.3365,-2.3402,-2.3399,-2.3369,-2.3388,-2.3377,-2.3362,-2.3367,-2.3367,-2.3369,-2.3374,-2.3377,-2.3381,-2.3344,-2.3305,-2.339,-2.3328,-2.3378,-2.3379,-2.34,-2.34,-2.3564,-2.3402,-2.3402,-2.3401,-2.3401,0,-2.3476,-2.3515,-2.3456,-2.3479,-2.3521,-2.3472,-2.3516,-2.3498,-2.3485,-2.3504,-2.3451,-2.3471,-2.342,-2.3435,-2.3406,-2.3444,-2.3446,-2.3434,-2.3426,-2.344,-2.3441,-2.3445,-2.3437,-2.3405,-2.3405,-2.3404,-2.3403,0,-2.362,-2.3582,-2.3618,-2.3586,-2.3579,-2.3612,-2.3585,-2.3606,-2.358,-2.3606,-2.3609,-2.357,-2.3584,-2.3547,-2.3557,-2.3537,-2.3593,-2.3573,-2.3597,-2.3592,-2.3644,-2.364,-2.3818,-2.3839,-2.3662,-2.3664,-2.3665,0,-2.3703,-2.3732,-2.3702,-2.371,-2.3701,-2.3716,-2.372,-2.3672,-2.3679,-2.3667,-2.3689,-2.3699,-2.3704,-2.373,-2.3704,-2.3711,-2.3691,-2.3753,-2.3692,-2.3705,-2.3694,-2.3694,-2.3697,-2.3766,-2.3769,-2.377,-2.3772,0,-2.3856,-2.3835,-2.3842,-2.3843,-2.3848,-2.3847,-2.3842,-2.3852,-2.3801,-2.3812,-2.3825,-2.3829,-2.3837,-2.3848,-2.3849,-2.3838,-2.3798,-2.3791,-2.3803,-2.3818,-2.3831,-2.3826,-2.3633,-2.3787,-2.3786,-2.3785,-2.3784,-2.3783,-2.3973,-2.3995,-2.3977,-2.3987,-2.3978,-2.3974,-2.3992,-2.3968,-2.3977,-2.398,-2.3951,-2.397,-2.3957,-2.3953,-2.3947,-2.3962,-2.3934,-2.3952,-2.3956,-2.3962,-2.3971,-2.3827,-2.3962,-2.3961,-2.3961,-2.396,-2.396,0,-2.4124,-2.4109,-2.4118,-2.4111,-2.4119,-2.4077,-2.4069,-2.4079,-2.4096,-2.4086,-2.4092,-2.4107,-2.4117,-2.409,-2.4096,-2.4114,-2.4095,-2.4117,-2.4116,-2.4115,-2.3995,-2.3984,-2.4132,-2.4132,-2.4132,-2.4132,-2.4132,-2.4132,-2.4203,-2.4239,-2.4216,-2.4246,-2.4231,-2.4248,-2.4248,-2.4244,-2.4236,-2.4255,-2.4262,-2.4244,-2.4227,-2.4231,-2.4239,-2.423,-2.4236,-2.4265,-2.4251,-2.414,-2.4123,-2.4107,-2.4097,-2.4266,-2.4266,-2.4369,-2.437,-2.4371]},{"header":{"parameterUnit":"m.s-1","parameterCategory":1,"la1":30.2991,"la2":30.254,"lo1":-89.0895,"lo2":-89.0444,"dx":0.0017,"dy":0.0017,"nx":28,"ny":28,"refTime":"2022-11-21T15:00:00:Z","depth":0,"parameterNumber":3,"parameterNumberName":"V-component_of_WINDS"},"data":[0,0,0,0,0,0,0,0,0,0,0,0,0,0,0,0,0,0,0,0,0,0,0,0,0,0,0,0,0,0,0,0,0,0,0,0,0,0,0,0,0,0,0,0,0,0,0,0,0,0,0,0,0,0,0,0,0,0,-3.9296,-3.9297,0,-3.9366,-3.9367,-3.9367,-3.9325,-3.9323,-3.9321,-3.9319,-3.9388,-3.9391,-3.9395,0,0,0,0,0,0,0,0,0,0,0,0,0,-3.9124,-3.9127,-3.9296,-3.9297,-3.9298,-3.9366,-3.9367,-3.9368,-3.9325,-3.9323,-3.932,-3.9318,-3.9386,-3.9391,-3.9395,0,0,0,0,0,0,0,0,0,0,0,0,0,-3.9196,-3.9128,-3.9296,-3.9285,-3.9285,-3.9366,-3.9367,-3.9368,-3.9326,-3.9323,-3.932,-3.9317,-3.9385,-3.939,-3.9396,-3.9491,0,0,-3.9413,-3.9415,0,0,0,0,0,0,0,0,-3.9192,-3.9203,-3.9286,-3.9286,-3.9286,-3.9334,-3.9331,-3.9409,-3.9327,-3.931,-3.9319,-3.9316,-3.9372,-3.9378,-3.9398,-3.9494,-3.9497,-3.9413,-3.9417,-3.9419,-3.9421,0,0,0,0,0,0,0,-3.9187,-3.9199,-3.9324,-3.9287,-3.9287,-3.9276,-3.9283,-3.9345,-3.9357,-3.9311,-3.9309,-3.9318,-3.9371,-3.9393,-3.9399,-3.9498,-3.9413,-3.9418,-3.9422,-3.9424,-3.9673,-3.9676,0,0,0,0,0,0,-3.9184,-3.9196,-3.9322,-3.9326,-3.9231,-3.9281,-3.9289,-3.9321,-3.9356,-3.9359,-3.932,-3.9315,-3.9385,-3.9393,-3.9402,-3.9514,-3.9419,-3.9424,-3.9427,-3.967,-3.9674,-3.9677,0,0,0,0,0,0,-3.918,-3.9195,-3.9319,-3.926,-3.9275,-3.9287,-3.9324,-3.9324,-3.9346,-3.9363,-3.9364,-3.934,-3.9383,-3.9394,-3.9469,-3.9516,-3.9427,-3.9432,-3.9666,-3.9671,-3.9676,-3.974,0,0,0,0,0,0,-3.9175,-3.9194,-3.9231,-3.9261,-3.9278,-3.9386,-3.9327,-3.9328,-3.9356,-3.935,-3.9382,-3.9384,-3.9381,-3.9461,-3.9474,-3.9522,-3.9436,-3.9662,-3.9668,-3.9674,-3.9734,-3.9747,-3.9758,0,0,0,0,0,-3.9169,-3.9246,-3.9233,-3.9249,-3.9325,-3.9389,-3.9398,-3.9394,-3.936,-3.9396,-3.9407,-3.9383,-3.9508,-3.9469,-3.9484,-3.9534,-3.9659,-3.9666,-3.9674,-3.9729,-3.9744,-3.9758,0,0,0,0,0,0,-3.9221,-3.925,-3.9236,-3.9325,-3.9355,-3.9382,-3.9428,-3.9411,-3.945,-3.9443,-3.9435,-3.9443,-3.9521,-3.9535,-3.949,-3.9626,-3.9578,-3.9589,-3.9615,-3.963,-3.9642,-3.9637,-3.9441,0,0,0,0,0,-3.9243,-3.9293,-3.9316,-3.9392,-3.9408,-3.9416,-3.9443,-3.9437,-3.9467,-3.9479,-3.9495,-3.9525,-3.957,-3.9601,-3.9644,-3.9736,-3.9741,-3.9777,-3.9789,-3.9799,-3.9808,-3.9857,-3.9873,-3.9702,-3.9702,-3.9701,0,0,-3.9289,-3.9311,-3.9343,-3.9403,-3.9426,-3.9477,-3.9426,-3.9483,-3.9521,-3.9488,-3.956,-3.9572,-3.9604,-3.9688,-3.9725,-3.9702,-3.9857,-3.9808,-3.9816,-3.982,-3.9866,-3.9882,-3.9897,-3.9707,-3.9706,-3.9705,0,0,-3.9398,-3.942,-3.9486,-3.951,-3.9544,-3.9548,-3.9564,-3.9593,-3.9601,-3.9673,-3.9649,-3.9693,-3.9772,-3.9796,-3.9818,-3.9935,-3.9914,-3.9949,-4.0012,-4.0059,-4.0073,-4.0085,-4.0126,-4.0141,-3.9958,-3.9959,-3.9959,0,-3.945,-3.9528,-3.9522,-3.9581,-3.9608,-3.958,-3.9646,-3.9669,-3.9715,-3.9734,-3.9707,-3.9805,-3.9825,-3.9913,-3.9941,-3.9961,-3.9977,-3.9946,-4.0071,-4.0083,-4.0094,-4.0134,-4.0149,-3.9963,-3.9962,-3.9962,-3.9961,0,-3.959,-3.9644,-3.9693,-3.974,-3.9772,-3.9834,-3.9836,-3.9869,-3.986,-3.9867,-3.994,-3.9962,-4.0009,-4.0029,-4.002,-4.0116,-4.01,-4.0072,-4.0024,-4.0115,-4.0152,-4.0167,-3.9968,-3.9967,-3.9966,-3.9965,0,0,-3.9735,-3.9777,-3.9795,-3.9816,-3.9851,-3.9892,-3.9952,-3.9999,-4.0027,-4.0059,-4.0109,-4.0176,-4.015,-4.0176,-4.0169,-4.0211,-4.0302,-4.0178,-4.0178,-4.02,-4.0407,-4.0428,-4.0446,-4.0288,-4.0291,-4.0293,-4.0405,0,-3.9847,-3.9953,-3.9949,-4.0048,-4.0097,-4.0071,-4.0123,-4.015,-4.0158,-4.0199,-4.0207,-4.0255,-4.0217,-4.0232,-4.0272,-4.0282,-4.0343,-4.0274,-4.0333,-4.0335,-4.0326,-4.0465,-4.0488,-4.0592,-4.0419,-4.0421,-4.0423,0,-3.9992,-4.003,-4.0134,-4.0162,-4.0182,-4.0229,-4.0271,-4.0312,-4.0341,-4.0343,-4.0371,-4.0357,-4.0417,-4.0366,-4.0447,-4.04,-4.0424,-4.0432,-4.0436,-4.0442,-4.0385,-4.0475,-4.0626,-4.0641,-4.0446,-4.0444,-4.0442,0,-4.0087,-4.0164,-4.0236,-4.0255,-4.0289,-4.0322,-4.0338,-4.0364,-4.0392,-4.0427,-4.0445,-4.0487,-4.051,-4.0543,-4.054,-4.0504,-4.0622,-4.0572,-4.0625,-4.0625,-4.0652,-4.065,-4.0809,-4.0667,-4.0667,-4.0666,-4.0666,0,-4.0213,-4.0277,-4.028,-4.0324,-4.0395,-4.0389,-4.0459,-4.047,-4.0494,-4.0539,-4.0518,-4.0561,-4.0555,-4.0598,-4.0596,-4.0663,-4.0673,-4.0676,-4.0675,-4.0678,-4.0678,-4.0694,-4.0687,-4.0671,-4.067,-4.0669,-4.0668,0,-4.0332,-4.0336,-4.0413,-4.0438,-4.0446,-4.0497,-4.0519,-4.056,-4.0565,-4.0623,-4.0636,-4.0644,-4.0692,-4.0693,-4.0748,-4.0747,-4.0829,-4.082,-4.082,-4.0818,-4.0872,-4.0867,-4.1046,-4.1069,-4.0912,-4.0914,-4.0915,0,-4.0412,-4.0461,-4.0492,-4.0521,-4.0539,-4.0586,-4.0614,-4.0609,-4.0639,-4.0676,-4.0713,-4.0759,-4.0797,-4.0875,-4.0885,-4.0927,-4.0919,-4.0979,-4.0925,-4.0926,-4.0919,-4.0917,-4.0921,-4.0989,-4.0991,-4.0993,-4.0994,0,-4.0553,-4.0553,-4.0595,-4.0638,-4.0673,-4.0706,-4.0737,-4.0761,-4.076,-4.0794,-4.0844,-4.0873,-4.093,-4.0976,-4.1017,-4.1031,-4.1012,-4.101,-4.1025,-4.1029,-4.1027,-4.1029,-4.0849,-4.1007,-4.1005,-4.1004,-4.1004,-4.1003,-4.0655,-4.0697,-4.0726,-4.0773,-4.0796,-4.0825,-4.0865,-4.0875,-4.0917,-4.0963,-4.0957,-4.1013,-4.1039,-4.1091,-4.1109,-4.1151,-4.113,-4.1152,-4.1157,-4.1163,-4.1168,-4.102,-4.1159,-4.1158,-4.1158,-4.1158,-4.1157,0,-4.0795,-4.0812,-4.0856,-4.09,-4.0937,-4.0916,-4.0949,-4.0981,-4.103,-4.1057,-4.1094,-4.1151,-4.1195,-4.1209,-4.1251,-4.1283,-4.1275,-4.1294,-4.1292,-4.1295,-4.1185,-4.1168,-4.1299,-4.1299,-4.1299,-4.1299,-4.1299,-4.1299,-4.0873,-4.0943,-4.0946,-4.1026,-4.1042,-4.1097,-4.1117,-4.1143,-4.1165,-4.1229,-4.1267,-4.1275,-4.1296,-4.134,-4.1379,-4.1382,-4.1399,-4.1421,-4.142,-4.1317,-4.1303,-4.1289,-4.1274,-4.1425,-4.1425,-4.1527,-4.1528,-4.1529]}]]